CW4226 Weather Reports


time (UTC)temp
F
wind
direction
speed
knots
gust
knots
rain 1hr
in
rain 24hr
in
rain mn
in
humidity
%
barometer
mb
20260505064223 62 227 6.1 7.0 0.00 0.00 0.00 47 1003.7
20260505063720 62 252 2.6 10.4 0.00 0.00 0.00 47 1003.7
20260505063216 62 230 3.5 7.8 0.00 0.00 0.00 47 1003.7
20260505063055 62 229 2.6 10.4 0.00 0.00 0.00 47 1002.0
20260505062713 62 187 1.7 9.6 0.00 0.00 0.00 47 1003.8
20260505062211 62 234 7.0 12.2 0.00 0.00 0.00 47 1003.9
20260505061707 62 233 3.5 9.6 0.00 0.00 0.00 48 1003.7
20260505061554 62 230 4.3 11.3 0.00 0.00 0.00 47 1002.1
20260505061206 62 243 1.7 7.8 0.00 0.00 0.00 47 1003.9
20260505060702 62 244 2.6 12.2 0.00 0.00 0.00 46 1003.7
20260505060159 62 246 4.3 5.2 0.00 0.00 0.00 46 1003.8
20260505060054 62 242 1.7 10.4 0.00 0.00 0.00 48 1002.3
20260505055655 61 235 1.7 5.2 0.00 0.00 0.00 46 1003.8
20260505055151 61 220 3.5 5.2 0.00 0.00 0.00 47 1004.1
20260505054649 62 83 1.7 2.6 0.00 0.00 0.00 46 1003.9
20260505054147 61 221 1.7 8.7 0.00 0.00 0.00 47 1003.9
20260505053644 61 244 2.6 3.5 0.00 0.00 0.00 47 1004.1
20260505053140 61 317 1.7 2.6 0.00 0.00 0.00 47 1004.1
20260505053056 61 243 0.9 6.1 0.00 0.00 0.00 48 1002.4
20260505052638 61 233 3.5 6.1 0.00 0.00 0.00 47 1004.1
20260505052135 61 226 2.6 4.3 0.00 0.00 0.00 46 1004.0
20260505051632 61 57 0.0 3.5 0.00 0.00 0.00 47 1004.0
20260505051555 61 216 1.7 8.7 0.00 0.00 0.00 47 1002.4
20260505051130 61 277 0.0 4.3 0.00 0.00 0.00 46 1004.1
20260505050627 61 246 3.5 6.1 0.00 0.00 0.00 46 1004.0
20260505050126 61 220 2.6 5.2 0.00 0.00 0.00 46 1004.1
20260505041555 62 57 1.7 4.3 0.00 0.00 0.00 46 1003.7
20260505041053 62 52 1.7 5.2 0.00 0.00 0.00 44 1003.6
20260505040550 62 235 0.0 6.1 0.00 0.00 0.00 44 1003.7
20260505040056 62 170 0.9 7.8 0.00 0.00 0.00 45 1001.9
20260505040047 62 31 0.0 2.6 0.00 0.00 0.00 46 1003.4
20260505035543 62 231 4.3 8.7 0.00 0.00 0.00 44 1003.4
20260505035040 62 96 0.9 5.2 0.00 0.00 0.00 44 1003.7
20260505034536 62 77 1.7 2.6 0.00 0.00 0.00 45 1003.5
20260505034033 62 47 0.0 3.5 0.00 0.00 0.00 44 1003.6
20260505033530 63 236 1.7 6.1 0.00 0.00 0.00 44 1003.4
20260505033028 63 250 1.7 5.2 0.00 0.00 0.00 43 1003.4
20260505032526 63 28 1.7 2.6 0.00 0.00 0.00 44 1003.6
20260505032022 63 293 0.9 7.8 0.00 0.00 0.00 42 1003.2
20260505031554 63 191 1.7 12.2 0.00 0.00 0.00 43 1001.8
20260505031519 63 41 1.7 6.1 0.00 0.00 0.00 42 1003.3
20260505031015 63 259 3.5 14.8 0.00 0.00 0.00 43 1003.5
20260505030512 63 89 0.0 5.2 0.00 0.00 0.00 43 1003.4
20260505030055 63 248 1.7 10.4 0.00 0.00 0.00 43 1002.0
20260505030009 63 50 0.9 9.6 0.00 0.00 0.00 43 1003.5
20260505025504 63 238 3.5 5.2 0.00 0.00 0.00 44 1003.5
20260505025004 63 336 2.6 10.4 0.00 0.00 0.00 43 1003.5
20260505024500 63 86 1.7 2.6 0.00 0.00 0.00 43 1003.8
20260505023957 63 34 1.7 10.4 0.00 0.00 0.00 44 1003.7
20260505023454 63 336 0.9 6.1 0.00 0.00 0.00 42 1003.9
20260505022952 63 230 2.6 2.6 0.00 0.00 0.00 43 1003.8
20260505022449 64 239 0.0 4.3 0.00 0.00 0.00 42 1003.8
20260505021946 64 238 0.9 3.5 0.00 0.00 0.00 42 1003.8
20260505021555 64 250 0.9 4.3 0.00 0.00 0.00 42 1002.4
20260505021443 63 308 0.0 4.3 0.00 0.00 0.00 42 1003.9
20260505020938 64 44 0.0 1.7 0.00 0.00 0.00 42 1004.1
20260505020434 64 225 1.7 4.3 0.00 0.00 0.00 42 1003.8
20260505020055 65 228 0.9 13.9 0.00 0.00 0.00 40 1002.3
20260505015931 64 36 1.7 2.6 0.00 0.00 0.00 42 1003.7
20260505015428 65 234 3.5 4.3 0.00 0.00 0.00 41 1004.0
20260505014925 65 265 0.0 5.2 0.00 0.00 0.00 40 1003.9
20260505014554 65 39 0.9 11.3 0.00 0.00 0.00 42 1002.4
20260505014422 65 63 1.7 4.3 0.00 0.00 0.00 40 1003.9
20260505013919 65 249 3.5 13.0 0.00 0.00 0.00 40 1003.8
20260505013416 65 254 2.6 3.5 0.00 0.00 0.00 41 1003.7
20260505013055 65 221 2.6 10.4 0.00 0.00 0.00 40 1002.4
20260505012914 64 230 3.5 3.5 0.00 0.00 0.00 41 1003.8
20260505012412 64 267 1.7 3.5 0.00 0.00 0.00 40 1004.0
20260505011908 65 344 0.9 4.3 0.00 0.00 0.00 41 1003.8
20260505011554 65 257 1.7 5.2 0.00 0.00 0.00 39 1002.2
20260505011404 65 279 0.9 3.5 0.00 0.00 0.00 40 1003.6
20260505010901 65 232 0.0 3.5 0.00 0.00 0.00 41 1003.6
20260505010357 65 286 0.9 2.6 0.00 0.00 0.00 40 1003.7
20260505010054 65 243 0.9 6.1 0.00 0.00 0.00 40 1002.2
20260505005853 65 247 3.5 3.5 0.00 0.00 0.00 40 1003.6
20260505005350 66 239 2.6 4.3 0.00 0.00 0.00 39 1003.4
20260505004848 66 233 3.5 6.1 0.00 0.00 0.00 38 1003.6
20260505004555 66 231 1.7 5.2 0.00 0.00 0.00 38 1002.2
20260505004343 66 230 1.7 2.6 0.00 0.00 0.00 39 1003.6
20260505003841 66 77 2.6 7.0 0.00 0.00 0.00 38 1003.5
20260505003338 66 223 0.0 4.3 0.00 0.00 0.00 37 1003.4
20260505003056 66 231 2.6 8.7 0.00 0.00 0.00 37 1002.0
20260505002834 66 231 3.5 11.3 0.00 0.00 0.00 37 1003.2
20260505002331 66 261 2.6 5.2 0.00 0.00 0.00 37 1003.6
20260505001829 66 228 0.0 2.6 0.00 0.00 0.00 37 1003.1
20260505001555 67 247 2.6 7.8 0.00 0.00 0.00 35 1001.6
20260505001326 66 249 1.7 8.7 0.00 0.00 0.00 37 1003.0
20260505000823 67 226 3.5 3.5 0.00 0.00 0.00 37 1003.1
20260505000321 67 260 0.0 1.7 0.00 0.00 0.00 36 1003.0
20260505000055 68 238 0.9 6.1 0.00 0.00 0.00 34 1001.7
20260504235817 68 293 0.0 4.3 0.00 0.00 0.00 34 1003.0
20260504235314 68 299 1.7 7.0 0.00 0.00 0.00 34 1002.8
20260504234811 67 269 0.9 4.3 0.00 0.00 0.00 35 1002.9
20260504234554 68 156 2.6 6.1 0.00 0.00 0.00 33 1001.7
20260504234309 68 239 3.5 3.5 0.00 0.00 0.00 35 1003.0
20260504233805 68 3 0.0 4.3 0.00 0.00 0.00 35 1002.8
20260504233301 68 278 1.7 7.0 0.00 0.00 0.00 34 1002.8
20260504233055 68 226 0.9 7.8 0.00 0.00 0.00 34 1001.6
20260504232758 68 265 1.7 7.0 0.00 0.00 0.00 35 1002.8
20260504232255 68 220 2.6 4.3 0.00 0.00 0.00 34 1002.8
20260504231752 68 247 2.6 5.2 0.00 0.00 0.00 35 1002.7
20260504231248 68 238 3.5 8.7 0.00 0.00 0.00 34 1002.5
20260504230744 69 231 4.3 5.2 0.00 0.00 0.00 35 1002.6
20260504230243 68 250 4.3 7.8 0.00 0.00 0.00 34 1002.6
20260504230055 69 229 4.3 7.8 0.00 0.00 0.00 31 1001.4
20260504225741 69 222 3.5 4.3 0.00 0.00 0.00 34 1002.6
20260504225237 69 222 3.5 4.3 0.00 0.00 0.00 33 1002.5
20260504224734 69 39 0.0 3.5 0.00 0.00 0.00 33 1002.5
20260504224555 69 230 2.6 6.1 0.00 0.00 0.00 32 1001.4
20260504224231 69 45 0.9 1.7 0.00 0.00 0.00 34 1002.6
20260504223728 69 273 1.7 3.5 0.00 0.00 0.00 34 1002.5
20260504223223 69 28 1.7 4.3 0.00 0.00 0.00 33 1002.5
20260504223056 69 230 1.7 10.4 0.00 0.00 0.00 32 1001.4
20260504222721 69 232 4.3 4.3 0.00 0.00 0.00 34 1002.5
20260504222217 69 232 7.0 7.8 0.00 0.00 0.00 34 1002.3
20260504221715 69 173 1.7 6.1 0.00 0.00 0.00 33 1002.6
20260504221557 69 221 1.7 6.1 0.00 0.00 0.00 32 1001.4
20260504221212 69 306 0.0 3.5 0.00 0.00 0.00 34 1002.4
20260504220708 69 256 3.5 3.5 0.00 0.00 0.00 33 1002.5
20260504220206 69 287 2.6 3.5 0.00 0.00 0.00 34 1002.5
20260504220054 69 230 1.7 7.0 0.00 0.00 0.00 32 1001.4
20260504215702 70 231 6.1 7.0 0.00 0.00 0.00 33 1002.6
20260504215159 69 254 2.6 4.3 0.00 0.00 0.00 32 1002.5
20260504214655 69 231 3.5 7.0 0.00 0.00 0.00 34 1002.5
20260504214554 69 222 4.3 8.7 0.00 0.00 0.00 31 1001.4
20260504214152 69 349 0.9 4.3 0.00 0.00 0.00 34 1002.4
20260504213648 70 260 0.9 3.5 0.00 0.00 0.00 33 1002.6
20260504213145 69 15 1.7 2.6 0.00 0.00 0.00 33 1002.4
20260504213056 69 222 1.7 7.0 0.00 0.00 0.00 32 1001.4
20260504212641 69 236 5.2 5.2 0.00 0.00 0.00 33 1002.5
20260504212138 69 318 0.0 8.7 0.00 0.00 0.00 33 1002.4
20260504211636 69 240 2.6 5.2 0.00 0.00 0.00 33 1002.5
20260504211555 70 225 2.6 5.2 0.00 0.00 0.00 33 1001.4
20260504211132 70 236 2.6 7.0 0.00 0.00 0.00 33 1002.5
20260504210630 70 252 1.7 5.2 0.00 0.00 0.00 33 1002.7
20260504210126 69 303 0.0 3.5 0.00 0.00 0.00 33 1002.9
20260504210055 69 241 1.7 6.1 0.00 0.00 0.00 32 1001.7
20260504205624 69 250 1.7 5.2 0.00 0.00 0.00 34 1002.8
20260504205121 69 227 5.2 5.2 0.00 0.00 0.00 35 1003.0
20260504204620 71 229 3.5 8.7 0.00 0.00 0.00 32 1002.9
20260504204555 70 237 2.6 7.8 0.00 0.00 0.00 32 1001.8
20260504204118 70 299 1.7 6.1 0.00 0.00 0.00 32 1003.0
20260504203616 68 233 5.2 5.2 0.00 0.00 0.00 36 1003.2
20260504203113 69 137 1.7 7.8 0.00 0.00 0.00 32 1003.3
20260504203055 69 233 2.6 8.7 0.00 0.00 0.00 31 1002.1
20260504202608 70 252 7.8 7.8 0.00 0.00 0.00 34 1003.3
20260504202105 70 230 3.5 5.2 0.00 0.00 0.00 35 1003.5
20260504201602 70 29 3.5 6.1 0.00 0.00 0.00 32 1003.3
20260504201554 70 245 2.6 6.1 0.00 0.00 0.00 30 1002.3
20260504201100 70 234 5.2 5.2 0.00 0.00 0.00 35 1003.3
20260504200556 72 185 1.7 4.3 0.00 0.00 0.00 34 1003.4
20260504200053 72 233 1.7 5.2 0.00 0.00 0.00 35 1003.5
20260504195549 74 224 8.7 10.4 0.00 0.00 0.00 30 1003.3
20260504195046 73 293 0.0 3.5 0.00 0.00 0.00 32 1003.6
20260504194555 73 233 1.7 4.3 0.00 0.00 0.00 28 1002.3
20260504194543 73 248 1.7 5.2 0.00 0.00 0.00 30 1003.6
20260504194038 74 234 3.5 3.5 0.00 0.00 0.00 31 1003.7
20260504193535 75 265 1.7 3.5 0.00 0.00 0.00 34 1003.9
20260504193056 72 229 1.7 7.8 0.00 0.00 0.00 36 1002.5
20260504193034 73 243 2.6 4.3 0.00 0.00 0.00 37 1003.8
20260504192531 73 227 3.5 8.7 0.00 0.00 0.00 30 1003.8
20260504192029 71 30 1.7 3.5 0.00 0.00 0.00 29 1004.1
20260504191556 72 226 2.6 4.3 0.00 0.00 0.00 31 1002.8
20260504191527 71 191 0.0 5.2 0.00 0.00 0.00 30 1004.1
20260504191023 73 288 1.7 3.5 0.00 0.00 0.00 29 1004.2
20260504190519 73 262 2.6 5.2 0.00 0.00 0.00 35 1004.1
20260504190055 72 221 1.7 10.4 0.00 0.00 0.00 33 1002.7
20260504190015 72 227 3.5 3.5 0.00 0.00 0.00 35 1004.1
20260504185512 71 240 4.3 9.6 0.00 0.00 0.00 34 1004.3
20260504185009 72 227 10.4 11.3 0.00 0.00 0.00 31 1004.4
20260504184555 71 218 1.7 7.8 0.00 0.00 0.00 31 1002.8
20260504184504 71 242 3.5 5.2 0.00 0.00 0.00 33 1004.1
20260504184000 71 224 2.6 7.8 0.00 0.00 0.00 34 1004.2
20260504183457 71 233 0.9 1.7 0.00 0.00 0.00 33 1004.2
20260504183056 71 241 2.6 5.2 0.00 0.00 0.00 30 1002.8
20260504182955 71 275 1.7 5.2 0.00 0.00 0.00 37 1004.2
20260504182452 73 246 0.9 4.3 0.00 0.00 0.00 39 1004.3
20260504181949 72 242 2.6 4.3 0.00 0.00 0.00 34 1004.4
20260504181555 70 253 1.7 7.8 0.00 0.00 0.00 37 1003.0
20260504181446 71 265 1.7 4.3 0.00 0.00 0.00 35 1004.3
20260504180945 69 304 1.7 3.5 0.00 0.00 0.00 37 1004.6
20260504180443 69 225 2.6 8.7 0.00 0.00 0.00 32 1004.6
20260504180055 68 247 2.6 12.2 0.00 0.00 0.00 35 1003.3
20260504175941 68 235 2.6 7.8 0.00 0.00 0.00 41 1004.8
20260504175438 68 233 8.7 8.7 0.00 0.00 0.00 36 1004.8
20260504174935 69 309 0.0 3.5 0.00 0.00 0.00 39 1004.5
20260504174555 69 233 2.6 8.7 0.00 0.00 0.00 39 1003.4
20260504174433 69 244 2.6 6.1 0.00 0.00 0.00 36 1004.6
20260504173930 68 227 2.6 7.0 0.00 0.00 0.00 33 1004.7
20260504173426 70 233 4.3 7.0 0.00 0.00 0.00 39 1004.9
20260504173055 69 263 1.7 8.7 0.00 0.00 0.00 33 1003.3
20260504172924 69 227 4.3 7.0 0.00 0.00 0.00 38 1004.8
20260504172420 69 255 3.5 7.0 0.00 0.00 0.00 38 1004.8
20260504171916 70 250 4.3 7.8 0.00 0.00 0.00 32 1005.0
20260504171555 69 225 1.7 7.8 0.00 0.00 0.00 39 1003.6
20260504171414 69 218 3.5 5.2 0.00 0.00 0.00 34 1004.8
20260504170910 68 233 3.5 4.3 0.00 0.00 0.00 40 1005.2
20260504170407 68 264 1.7 9.6 0.00 0.00 0.00 37 1005.2
20260504160326 65 257 4.3 5.2 0.00 0.00 0.00 36 1006.1
20260504150750 63 241 1.7 5.2 0.00 0.00 0.00 44 1006.7
20260504150247 63 252 2.6 5.2 0.00 0.00 0.00 37 1006.8
20260504141217 59 271 4.3 4.3 0.00 0.00 0.00 37 1007.2
20260504140714 58 240 7.0 11.3 0.00 0.00 0.00 36 1007.2
20260504140209 58 227 2.6 2.6 0.00 0.00 0.00 39 1007.4
20260504130637 55 234 3.5 6.1 0.00 0.00 0.00 39 1007.6
20260504130134 55 51 1.7 6.1 0.00 0.00 0.00 40 1007.9
20260504110525 40 57 0.9 1.7 0.00 0.00 0.00 74 1008.4
20260504100442 37 54 1.7 2.6 0.00 0.00 0.00 75 1008.1
20260504081840 39 62 1.7 2.6 0.00 0.00 0.00 69 1008.4
20260504081554 40 92 0.0 0.9 0.00 0.00 0.00 68 1007.5
20260504081337 40 62 1.7 3.5 0.00 0.00 0.00 69 1008.6
20260504080833 40 66 1.7 2.6 0.00 0.00 0.00 68 1008.2
20260504080331 40 70 1.7 2.6 0.00 0.00 0.00 69 1008.3
20260504070258 43 67 1.7 1.7 0.00 0.00 0.00 61 1008.1